Regional Weather Roundup
Issued by NWS

Home | Current Version | Previous Version | Text Only | Print | Product List | Glossary Off
Versions: 1 2 3 4 5 6 7 8 9 10 11 12 13 14 15 16 17 18 19 20 21 22 23 24 25 26 27 28 29 30 31 32 33 34 35 36 37 38 39 40 41 42 43 44 45 46 47 48 49 50

000
ASUS43 KDTX 021210
RWRMI
MICHIGAN HOURLY REGIONAL WEATHER ROUNDUP
NATIONAL WEATHER SERVICE DETROIT/PONTIAC MI
800 AM EDT THU JUL 02 2015

NOTE: "FAIR" INDICATES FEW OR NO CLOUDS BELOW 12,000 FEET WITH NO
SIGNIFICANT WEATHER AND/OR OBSTRUCTION TO VISIBILITY.

MIZ047>049-052>055-059>063-066>070-074>076-081>083-021300-
SOUTHEAST LOWER MICHIGAN

CITY           SKY/WX    TMP DP  RH WIND       PRES   REMARKS
ADRIAN         PTSUNNY   61  57  87 E8        29.99R
6HR MIN TEMP:  55; 6HR MAX TEMP:  61;

ALMA           CLOUDY    56  53  88 NE5       30.02S
ANN ARBOR      MOSUNNY   60  57  89 NE6       29.99R
BAD AXE        SUNNY     56  54  94 N6        30.01S
6HR MIN TEMP:  46; 6HR MAX TEMP:  57;

CARO           MOSUNNY   58  54  85 N3        30.00S
DETROIT CITY   MOSUNNY   61  54  77 NE6       30.00R
6HR MIN TEMP:  58; 6HR MAX TEMP:  61;

DETROIT        PTSUNNY   61  55  81 N8        29.99R
6HR MIN TEMP:  58; 6HR MAX TEMP:  62;

FLINT          MOSUNNY   62  53  72 NE8       30.00R
6HR MIN TEMP:  57; 6HR MAX TEMP:  62;

GROSSE ILE     PTSUNNY   61  55  82 NE8       29.98R
HILLSDALE      CLOUDY    57  57 100 E6        29.99R FOG
6HR MIN TEMP:  53; 6HR MAX TEMP:  57;

HOWELL         CLOUDY    58  58  98 NE6       30.00S

CITY           SKY/WX    TMP DP  RH WIND       PRES   REMARKS
JACKSON        FOG       56  55  97 NE6       30.00R VSB 3/4
6HR MIN TEMP:  51; 6HR MAX TEMP:  56;

LAMBERTVILLE   CLOUDY    62  58  87 NE7       29.98R
6HR MIN TEMP:  60; 6HR MAX TEMP:  63;

LANSING        CLOUDY    58  55  90 NE8       30.00S
6HR MIN TEMP:  54; 6HR MAX TEMP:  58;

LAPEER         FAIR      58  53  82 E3        30.00S
MASON          CLOUDY    56  55  97 NE5       29.99S FOG
MONROE         SUNNY     61  57  88 NE8       29.98R
MT. CLEMENS    PTSUNNY   60  55  84 N8        29.98R
6HR MIN TEMP:  58; 6HR MAX TEMP:  60;

PONTIAC        CLOUDY    58  53  84 NE8       29.99R
6HR MIN TEMP:  57; 6HR MAX TEMP:  59;

PORT HOPE        N/A     58  54  86 VRB3      30.00R
6HR MIN TEMP:  56; 6HR MAX TEMP:  60;

PORT HURON     PTSUNNY   57  55  94 N5        30.00R
TRI CITIES     CLOUDY    60  51  72 N8        30.02S
6HR MIN TEMP:  57; 6HR MAX TEMP:  61;

MIDLAND        CLOUDY    56  52  86 CALM      30.02S
TROY           CLOUDY    60  55  83 N5        30.02R
SAGINAW HB     CLOUDY    59  59 100 CALM      30.01R
$$
MIZ043>046-050>051-056>058-064>065-071>073-077>080-021300-
SOUTHWEST LOWER MICHIGAN

CITY           SKY/WX    TMP DP  RH WIND       PRES   REMARKS
BATTLE CREEK   CLOUDY    58  55  90 NE7       30.00R
6HR MIN TEMP:  53; 6HR MAX TEMP:  58;

BENTON HARBOR  SUNNY     56  53  90 NE6       29.98R
6HR MIN TEMP:  49; 6HR MAX TEMP:  56;

BIG RAPIDS     SUNNY     52  47  84 N3        30.02F
6HR MIN TEMP:  47; 6HR MAX TEMP:  55;

COLDWATER      CLOUDY    55  55  99 E7        29.99R FOG
6HR MIN TEMP:  52; 6HR MAX TEMP:  55;

FREMONT        FAIR      54  50  88 NE7       30.00F
6HR MIN TEMP:  49; 6HR MAX TEMP:  54;

HOLLAND        PTSUNNY   56  52  86 NE5       30.01R
6HR MIN TEMP:  53; 6HR MAX TEMP:  56;

GRAND RAPIDS   MOSUNNY   55  52  89 E7        30.00S
6HR MIN TEMP:  51; 6HR MAX TEMP:  55;

IONIA          CLOUDY    55  54  95 NE3       30.00R
KALAMAZOO      FOG       56  54  93 CALM      30.00R VSB 1/4
6HR MIN TEMP:  52; 6HR MAX TEMP:  56;

LUDINGTON      SUNNY     51  49  92 NE5       30.04S
6HR MIN TEMP:  43; 6HR MAX TEMP:  51;

MARSHALL       FOG       55  54  96 NE3       29.99R VSB 1
MOUNT PLEASANT MOSUNNY   55  50  84 N5        30.01F
6HR MIN TEMP:  51; 6HR MAX TEMP:  55;

MUSKEGON       MOSUNNY   54  49  83 NE8       30.01S
6HR MIN TEMP:  52; 6HR MAX TEMP:  55;

SOUTH HAVEN    SUNNY     54  52  94 NE6       29.98F
$$
MIZ016>042-021300-
NORTHERN LOWER MICHIGAN

CITY           SKY/WX    TMP DP  RH WIND       PRES   REMARKS
ALPENA         SUNNY     52  47  83 NW3       30.04R
6HR MIN TEMP:  44; 6HR MAX TEMP:  52;

BEAVER ISLAND  SUNNY     53  49  86 NW5       30.06R
6HR MIN TEMP:  39; 6HR MAX TEMP:  53;

BELLAIRE       SUNNY     47  46  96 CALM      30.06S
6HR MIN TEMP:  40; 6HR MAX TEMP:  47;

CADILLAC       SUNNY     51  46  83 N6        30.03S
CHARLEVOIX     SUNNY     54  50  87 SE5       30.07S
FRANKFORT      SUNNY     50  44  80 CALM      30.05S
GAYLORD        SUNNY     50  48  93 W3        30.06R
6HR MIN TEMP:  41; 6HR MAX TEMP:  52;

GRAYLING       SUNNY     47  45  90 CALM      30.05S
6HR MIN TEMP:  37; 6HR MAX TEMP:  47;

HARBOR SPRINGS SUNNY     50  46  86 CALM      30.05S
HOUGHTON LAKE  SUNNY     51  46  83 NE7       30.04S
6HR MIN TEMP:  42; 6HR MAX TEMP:  51;

MANISTEE       SUNNY     48  45  87 CALM      30.05S
OSCODA         SUNNY     54  50  86 N5        30.02S
PELLSTON       SUNNY     50  47  89 CALM      30.05S
6HR MIN TEMP:  41; 6HR MAX TEMP:  50;

ROGERS CITY    SUNNY     55  52  88 W3        30.05S
TRAVERSE CITY  SUNNY     51  48  89 CALM      30.04S
6HR MIN TEMP:  44; 6HR MAX TEMP:  51;

$$
MIZ007>008-015-021300-
EASTERN UPPER MICHIGAN

CITY           SKY/WX    TMP DP  RH WIND       PRES   REMARKS
KINROSS        SUNNY     50  46  87 NW6       30.05R
6HR MIN TEMP:  43; 6HR MAX TEMP:  50;

MACKINAC ISLAN SUNNY     55  48  77 CALM      30.04S
6HR MIN TEMP:  47; 6HR MAX TEMP:  55; 6HR PCP:  0.01;

NEWBERRY       CLOUDY    52  44  75 N3        30.05S
S. S. MARIE    SUNNY     51  44  77 W5        30.05R
6HR MIN TEMP:  43; 6HR MAX TEMP:  51;

MUNISING         N/A     51  45  79 S7        30.05S
6HR MIN TEMP:  44; 6HR MAX TEMP:  51;

$$
MIZ004>006-011>014-085-021300-
CENTRAL UPPER MICHIGAN

CITY           SKY/WX    TMP DP  RH WIND       PRES   REMARKS
MANISTIQUE     CLOUDY    51  45  81 CALM      30.06R
ESCANABA       SUNNY     48  45  87 NW3       30.06S
6HR MIN TEMP:  41; 6HR MAX TEMP:  48;

MENOMINEE      SUNNY     52  43  71 N3        30.06S
6HR MIN TEMP:  45; 6HR MAX TEMP:  52;

SAWYER-GWINN   MOSUNNY   48  45  87 CALM      30.07R
$$
MIZ001>003-009>011-084-021300-
WESTERN UPPER MICHIGAN

CITY           SKY/WX    TMP DP  RH WIND       PRES   REMARKS
IRON MOUNTAIN  SUNNY     50  46  86 N3        30.07S
6HR MIN TEMP:  42; 6HR MAX TEMP:  50;

HOUGHTON       PTSUNNY   56  49  77 W3        30.03S
6HR MIN TEMP:  47; 6HR MAX TEMP:  56;

COPPER HARBOR    N/A     57  47  69 SW9       30.02R
6HR MIN TEMP:  54; 6HR MAX TEMP:  59;

IRONWOOD       SUNNY     55  48  76 S8        30.03R
6HR MIN TEMP:  45; 6HR MAX TEMP:  55;

$$

ABBREVIATIONS USED IN REMARKS
   TC - TEMPERATURE IN CELSIUS
  WCI - WIND CHILL INDEX
   HX - HEAT INDEX
  VSB - VISIBILITY



USA.gov is the U.S. government's official web portal to all federal, state and local government web resources and services.